Weather History for Fairbanks Eiels, AK

Change the Weather History Date:

Wednesday, December 18, 2013

  Actual Average Record
Temperature  
Mean Temperature -13 °F -  
Max Temperature -5 °F 9 °F 41 °F (1981)
Min Temperature -21 °F -9 °F -48 °F (1956)
Degree Days  
Heating Degree Days 78    
Moisture  
Dew Point -19 °F    
Average Humidity 76    
Maximum Humidity 79    
Minimum Humidity 70    
Precipitation  
Precipitation 0.00 in - - ()
Sea Level Pressure  
Sea Level Pressure 30.19 in    
Wind  
Wind Speed 1 mph (North)    
Max Wind Speed 6 mph    
Max Gust Speed -    
Visibility 9 miles    
Events      
Averages and records for this station are not official NWS values.
T = Trace of Precipitation, MM = Missing Value Source: NWS Daily Summary

Daily Weather History Graph

Daily Weather History Graph

Search for Another Location

Airport:

Trip Planner

Search our weather history database for the weather conditions in past years. The results will help you decide how hot, cold, wet, or windy it might be!

Date:

Astronomy

Dec. 18, 2013 Rise Set
Actual Time 10:50 AM AKST 2:40 PM AKST
Civil Twilight 9:26 AM AKST 4:03 PM AKST
Nautical Twilight 8:15 AM AKST 5:14 PM AKST
Astronomical Twilight 7:14 AM AKST 6:16 PM AKST
Moon 5:14 PM AKST (12/18) 10:45 AM AKST (12/18)
Length of Visible Light 6h 36m
Length of Day
3h 49m
Full, 98% of the Moon is Illuminated
Dec 18
Full
Dec 25
Last Quarter
Jan 1
New
Jan 7
First Quarter
Jan 15
Full

Hourly Weather History & Observations

Time (AKST) Temp. Windchill Dew Point Humidity Pressure Visibility Wind Dir Wind Speed Gust Speed Precip Events Conditions
12:13 AM -13.0 °F - -18.4 °F 77% 30.35 in 7.0 mi North 2.3 mph - N/A   Overcast
12:43 AM -11.2 °F - -16.6 °F 77% 30.35 in 10.0 mi North 2.3 mph - N/A   Overcast
12:58 AM -10.8 °F - -16.2 °F 77% 30.42 in 10.0 mi Calm Calm - N/A   Overcast
1:13 AM -11.2 °F - -16.6 °F 77% 30.35 in 8.0 mi Calm Calm - N/A   Overcast
1:28 AM -11.2 °F - -16.6 °F 77% 30.35 in 4.0 mi Calm Calm - N/A   Haze
1:43 AM -9.4 °F - -14.8 °F 77% 30.34 in 7.0 mi Calm Calm - N/A   Overcast
1:58 AM -9.4 °F -18.6 °F -14.8 °F 77% 30.41 in 10.0 mi North 3.5 mph - N/A   Overcast
2:58 AM -8.1 °F - -13.5 °F 77% 30.40 in 10.0 mi Calm Calm - 0.00 in   Overcast
3:58 AM -7.2 °F - -12.6 °F 77% 30.39 in 10.0 mi NE 2.3 mph - N/A   Overcast
4:43 AM -11.2 °F - -16.6 °F 77% 30.30 in 10.0 mi Calm Calm - N/A   Mostly Cloudy
4:58 AM -9.8 °F - -15.2 °F 77% 30.36 in 10.0 mi Calm Calm - N/A   Mostly Cloudy
5:58 AM -7.6 °F - -13.0 °F 77% 30.35 in 10.0 mi Calm Calm - 0.00 in   Overcast
6:58 AM -6.5 °F -19.3 °F -11.9 °F 77% 30.33 in 10.0 mi North 5.8 mph - 0.00 in   Overcast
7:58 AM -5.6 °F - -11.0 °F 77% 30.33 in 10.0 mi Calm Calm - N/A   Overcast
8:58 AM -5.6 °F - -11.0 °F 77% 30.31 in 10.0 mi Calm Calm - N/A   Overcast
9:43 AM -7.6 °F -18.8 °F -13.0 °F 77% 30.21 in 10.0 mi North 4.6 mph - N/A   Mostly Cloudy
9:58 AM -8.0 °F - -12.8 °F 79% 30.27 in 10.0 mi North 2.3 mph - N/A   Scattered Clouds
10:58 AM -10.3 °F - -15.2 °F 79% 30.27 in 10.0 mi North 1.2 mph - N/A   Clear
11:28 AM -14.8 °F - -20.2 °F 77% 30.19 in 7.0 mi Calm Calm - N/A   Clear
11:58 AM -12.1 °F -25.9 °F -17.5 °F 77% 30.24 in 10.0 mi North 5.8 mph - N/A   Clear
12:58 PM -11.2 °F - -16.6 °F 77% 30.21 in 10.0 mi North 2.3 mph - 0.00 in   Clear
1:58 PM -14.8 °F - -20.4 °F 76% 30.19 in 8.0 mi Variable 1.2 mph - 0.00 in   Clear
2:28 PM -14.8 °F -24.8 °F -20.2 °F 77% 30.09 in 10.0 mi North 3.5 mph - N/A   Clear
2:58 PM -15.5 °F - -21.3 °F 75% 30.14 in 10.0 mi Calm Calm - N/A   Clear
3:58 PM -17.3 °F - -23.3 °F 74% 30.12 in 10.0 mi Calm Calm - N/A   Clear
4:58 PM -19.1 °F - -25.2 °F 73% 30.11 in 10.0 mi Calm Calm - N/A   Clear
5:43 PM -20.2 °F - -25.6 °F 76% 30.00 in 3.0 mi Variable 2.3 mph - N/A   Haze
5:47 PM -18.4 °F - -25.6 °F 70% 30.01 in 10.0 mi NW 2.3 mph - N/A   Clear
5:58 PM -20.4 °F - -26.9 °F 72% 30.07 in 10.0 mi Calm Calm - N/A   Clear
6:58 PM -21.8 °F - -28.1 °F 73% 30.05 in 10.0 mi Calm Calm - N/A   Clear
7:58 PM -19.3 °F - -25.6 °F 73% 30.00 in 10.0 mi Calm Calm - N/A   Clear
8:58 PM -20.2 °F - -26.3 °F 73% 29.96 in 7.0 mi Calm Calm - N/A   Scattered Clouds
9:58 PM -20.7 °F - -26.9 °F 73% 29.92 in 10.0 mi Calm Calm - N/A   Partly Cloudy
10:58 PM -18.4 °F - -24.5 °F 74% 29.91 in 10.0 mi Calm Calm - N/A   Clear
11:13 PM -16.6 °F - -23.8 °F 70% 29.83 in 8.0 mi Calm Calm - N/A   Clear
11:43 PM -14.8 °F - -22.0 °F 70% 29.83 in 4.0 mi Calm Calm - N/A   Haze
11:58 PM -14.8 °F - -20.6 °F 75% 29.89 in 9.0 mi Calm Calm - N/A   Mostly Cloudy